Wind_Speed
29 28 27 25 24 23 23 23 24 23 22 20 19 19 19 18 15 14 13 13 14 14 14 13 12 12 11 12 12 11 11 12 12 12 11 11 11 11 10 11 11 12 12 12
31 31 31 29 27 25 24 23 23 24 23 22 20 20 19 18 15 14 15 15 15 15 15 13 12 12 12 12 12 13 13 12 13 12 12 12 12 12 12 12 12 13 13 13
33 33 33 33 29 27 26 25 24 24 23 23 23 21 20 19 18 18 19 18 17 16 15 13 12 12 12 12 13 13 13 13 13 13 13 13 13 13 13 13 14 13 14 14
34 34 37 33 31 29 27 26 26 25 25 25 25 24 23 21 20 20 20 19 18 17 15 14 13 12 12 12 14 14 14 14 14 14 14 14 14 14 14 14 14 14 15 16
34 35 36 33 32 31 29 28 28 27 25 26 26 25 23 23 22 21 20 20 19 18 17 15 14 13 13 14 15 15 15 16 15 15 15 14 15 15 15 15 15 15 16 17
36 36 37 34 33 32 31 31 30 28 28 27 26 25 24 23 23 22 21 21 20 17 17 16 15 15 15 16 17 17 16 16 16 16 16 16 16 16 16 16 16 17 17 17
36 36 36 34 35 34 34 33 31 30 29 29 28 26 25 24 23 23 23 22 21 20 18 17 17 16 16 17 17 17 17 18 18 17 16 17 17 17 17 18 18 18 18 18
36 36 35 33 34 36 36 34 33 32 31 30 29 28 28 26 25 24 24 22 22 21 20 19 18 18 18 18 19 18 19 19 18 18 18 18 18 18 18 19 19 19 19 19
37 36 34 34 35 35 36 35 34 33 32 31 30 30 28 27 26 25 25 24 23 22 22 21 20 21 20 20 20 20 20 20 20 20 20 20 19 19 19 20 20 20 19 19
39 37 35 35 36 36 36 35 34 33 31 30 30 29 29 28 27 25 24 23 23 23 23 22 22 22 21 21 21 21 21 21 21 21 21 21 21 21 20 20 20 20 20 20
39 38 37 36 35 35 35 33 32 33 32 31 30 29 27 27 27 25 24 24 25 24 24 23 23 23 22 22 21 21 21 22 22 22 22 22 22 21 21 21 22 22 22 22
38 37 37 36 36 37 36 35 34 34 32 30 30 30 29 29 28 27 26 25 24 24 24 24 24 23 23 23 22 22 22 22 22 22 23 23 22 22 22 23 23 23 24 24
37 37 36 35 36 36 35 35 35 35 33 32 32 31 31 30 29 27 26 25 25 25 25 25 24 24 24 24 24 24 24 24 24 24 24 24 23 23 24 24 25 25 24 24
38 37 37 37 36 36 35 34 34 34 32 32 32 32 32 31 31 29 26 26 25 26 26 26 26 26 26 25 25 24 24 24 24 24 24 24 24 24 25 25 25 25 25 25
39 38 37 36 36 34 34 34 34 34 33 33 33 32 31 31 30 29 28 27 26 27 27 27 27 27 27 26 26 25 25 25 25 25 25 25 25 25 26 26 26 26 26 26
40 39 37 37 37 35 34 34 34 34 33 32 31 32 31 30 30 29 29 28 28 28 28 28 28 27 27 27 27 26 26 26 26 26 26 26 26 26 27 26 26 26 26 27
41 40 38 37 36 37 36 35 34 33 32 32 32 32 31 31 30 30 29 29 29 28 28 29 29 28 27 27 27 27 27 27 27 27 27 27 27 27 27 27 27 27 27 27
41 40 39 38 37 36 36 36 35 34 33 32 32 32 32 32 31 30 30 30 30 30 30 30 29 29 28 28 28 28 28 27 27 27 28 27 27 27 27 27 27 27 27 27
40 40 39 38 38 38 37 37 35 35 34 33 32 32 32 32 31 31 30 30 30 30 30 30 29 29 29 28 28 27 27 27 27 28 28 27 27 27 27 27 27 27 27 27
37 38 39 39 38 37 36 35 35 35 34 33 32 32 32 32 31 31 30 30 30 29 29 29 29 29 29 28 28 28 28 28 28 28 27 27 27 27 27 27 26 26 27 27
34 36 36 37 37 35 35 34 34 34 33 33 32 31 31 31 31 31 30 29 29 29 29 29 28 27 27 28 28 28 28 27 27 27 28 27 27 26 26 26 26 26 26 26
31 32 32 33 33 34 34 34 33 33 32 32 32 32 31 31 31 31 30 30 29 29 29 28 28 28 28 28 28 27 27 26 26 27 27 26 26 25 25 24 24 24 25 25
29 29 29 30 30 31 31 31 31 31 31 31 31 31 30 29 29 30 30 30 30 29 29 28 27 27 27 27 27 26 26 25 25 25 25 25 25 24 24 24 24 23 23 24
26 26 27 27 28 28 28 29 29 29 30 29 29 29 28 28 28 28 28 28 28 28 28 27 26 26 25 25 25 24 24 24 25 25 25 24 24 24 24 23 23 24 24 25
23 24 24 26 26 27 26 26 27 26 27 27 27 27 27 27 27 27 27 27 26 26 25 24 24 23 23 23 24 23 23 24 24 23 22 22 23 23 23 23 24 25 25 26
20 22 23 24 25 25 25 25 25 24 24 24 24 24 24 24 24 24 24 24 24 24 23 23 23 23 23 23 22 22 22 21 21 21 21 22 22 23 24 24 25 25 26 26
18 19 20 21 22 22 23 23 23 22 22 22 22 22 22 22 22 22 22 22 22 22 21 21 22 22 22 22 22 21 21 21 21 21 22 23 23 23 23 24 24 25 25 26
Wind_Direction
215 215 219 223 225 227 231 232 233 233 237 247 258 268 277 284 292 303 307 312 313 314 316 314 316 320 324 331 332 333 337 337 336 335 335 333 330 327 324 323 320 318 317 313
217 215 219 224 227 229 230 229 230 233 238 243 253 263 273 282 293 299 302 304 306 310 312 307 309 315 318 322 327 326 328 330 332 336 335 333 331 326 323 321 319 318 316 316
218 217 221 224 227 230 231 230 230 234 239 243 251 260 271 279 286 289 294 297 301 306 305 300 302 308 313 317 320 324 325 326 328 330 330 329 327 324 322 320 319 319 317 316
220 217 221 224 226 230 231 231 232 236 239 243 250 257 265 273 279 284 289 293 297 299 297 295 298 302 308 312 317 319 320 322 324 326 326 326 325 323 320 319 318 317 316 315
220 220 223 224 224 227 230 230 231 235 241 245 248 254 262 269 275 280 282 287 290 291 290 291 295 301 305 309 312 314 316 317 318 319 320 321 323 322 320 319 319 318 316 316
223 223 224 223 224 226 229 231 233 237 241 245 249 256 265 269 274 278 278 284 285 283 286 288 292 297 300 304 306 308 310 312 312 312 314 315 317 319 320 320 319 317 316 316
224 225 225 223 224 226 230 234 236 240 244 248 253 258 263 267 271 275 278 280 283 284 287 289 291 293 296 300 303 305 306 307 308 309 309 312 314 315 316 317 316 314 313 314
225 227 225 224 224 226 231 234 236 241 245 249 252 256 261 264 267 271 273 274 278 282 284 286 288 290 292 295 299 302 303 304 306 307 308 310 312 312 312 313 313 312 312 313
227 229 227 225 225 226 231 235 239 241 244 249 253 256 259 262 264 268 270 272 274 278 282 284 286 288 289 291 295 298 300 301 303 304 305 306 307 308 309 311 311 311 312 312
227 228 227 225 226 228 232 236 241 242 244 248 252 255 259 263 265 266 268 269 272 276 279 282 285 287 288 289 291 293 296 298 300 301 303 304 304 305 305 307 308 309 311 311
229 230 228 227 228 230 232 236 240 242 244 247 251 254 259 263 265 267 270 272 273 276 278 280 282 285 286 287 289 291 294 296 297 299 301 302 303 304 304 305 306 307 308 309
231 232 231 229 229 231 232 236 240 243 245 247 252 257 260 264 266 268 270 271 273 274 277 279 282 283 285 286 288 290 291 293 295 297 299 301 301 302 303 303 304 305 305 306
230 232 232 233 233 234 235 238 242 243 244 247 251 256 260 263 266 268 269 271 272 274 276 277 280 281 283 285 286 287 289 291 293 295 297 299 300 301 301 301 302 303 304 304
231 233 234 234 235 235 235 237 240 243 244 246 250 255 258 262 265 268 269 271 272 273 275 277 278 280 282 283 284 285 288 289 291 293 296 298 298 299 300 301 301 302 303 303
230 232 234 234 235 238 238 239 241 243 246 248 250 254 257 260 263 266 267 269 271 274 276 277 279 279 279 281 282 283 285 288 290 292 295 296 296 297 299 298 298 299 300 301
229 231 233 235 237 239 241 242 243 244 246 249 251 252 255 258 262 265 267 268 270 273 275 276 278 278 278 279 281 282 284 286 288 290 292 293 294 296 297 298 298 298 297 298
230 232 235 236 237 239 241 244 245 245 247 248 250 252 254 258 261 264 266 267 269 272 273 274 276 277 278 279 281 282 283 285 287 289 290 291 293 294 295 295 295 295 296 296
233 236 238 239 241 242 243 245 247 248 249 249 249 251 254 257 260 262 264 266 268 270 271 273 274 275 277 279 280 281 283 285 286 287 288 290 292 293 294 294 294 294 296 296
234 236 237 239 242 243 245 246 247 249 250 250 250 251 253 256 258 260 262 264 266 268 270 272 273 273 275 276 278 280 283 285 286 286 287 289 290 292 294 293 293 293 294 296
236 238 240 241 243 244 244 246 247 249 250 251 251 251 253 255 257 259 261 263 265 267 268 270 272 273 275 275 277 280 282 284 284 284 285 287 289 292 293 292 292 292 293 294
236 238 240 242 243 243 243 244 246 247 249 250 250 251 254 256 258 260 261 262 264 266 268 271 273 274 276 278 279 280 281 281 281 282 284 285 287 289 290 291 292 293 293 295
237 239 240 240 240 240 241 242 243 245 247 248 249 252 254 256 257 259 260 261 263 266 269 272 273 274 277 278 277 278 278 278 279 281 284 286 287 288 289 290 291 293 294 296
238 239 238 238 238 238 239 240 242 244 246 247 247 250 253 254 255 257 259 261 264 266 268 270 272 274 276 277 276 277 277 278 280 282 284 286 287 287 288 289 289 291 294 296
237 237 237 236 236 236 238 240 242 244 244 243 245 247 250 253 255 257 259 261 262 264 266 269 270 272 275 276 276 276 276 277 280 281 282 284 286 288 289 289 290 292 293 295
234 234 233 233 233 234 236 239 240 241 241 242 245 248 251 254 256 256 257 258 260 262 264 266 268 269 269 271 273 274 276 279 279 278 280 283 286 288 288 290 292 293 294 295
233 233 232 231 232 232 234 237 238 239 241 243 245 246 249 252 255 256 257 259 260 260 261 263 264 266 268 271 272 273 276 278 278 278 280 283 285 286 287 290 292 294 294 294
229 229 229 229 228 228 231 233 234 235 238 240 242 245 248 251 253 255 258 259 260 260 261 262 265 266 267 267 269 270 273 276 279 279 282 285 286 287 288 290 292 294 295 296
Height
5876 5880 5883 5886 5889 5892 5894 5897 5899 5902 5903 5905 5906 5906 5906 5906 5906 5907 5907 5907 5907 5906 5905 5904 5903 5901 5899 5898 5896 5894 5892 5890 5888 5886 5885 5883 5882 5880 5878 5877 5875 5873 5871 5870
5871 5875 5878 5881 5884 5887 5890 5892 5894 5896 5899 5901 5902 5902 5902 5903 5903 5904 5904 5904 5904 5903 5902 5901 5900 5899 5897 5896 5894 5892 5890 5889 5887 5885 5883 5881 5879 5878 5876 5874 5872 5870 5868 5866
5865 5869 5872 5875 5880 5882 5884 5887 5889 5891 5895 5896 5897 5898 5899 5900 5901 5901 5901 5901 5900 5899 5898 5898 5897 5896 5895 5893 5892 5890 5888 5887 5885 5883 5881 5879 5877 5875 5873 5871 5869 5867 5865 5863
5859 5864 5866 5872 5875 5877 5880 5882 5884 5887 5889 5891 5893 5895 5896 5897 5898 5897 5897 5896 5896 5895 5894 5894 5893 5892 5891 5890 5889 5887 5886 5884 5882 5880 5878 5876 5874 5872 5870 5867 5865 5863 5861 5859
5852 5856 5860 5866 5869 5872 5874 5876 5879 5882 5885 5887 5888 5890 5892 5893 5893 5893 5892 5892 5892 5891 5891 5890 5889 5889 5888 5887 5886 5884 5882 5881 5879 5877 5875 5873 5871 5869 5866 5864 5862 5859 5857 5855
5845 5849 5853 5860 5864 5866 5869 5870 5873 5876 5879 5881 5883 5886 5888 5888 5888 5888 5887 5887 5887 5886 5886 5885 5885 5884 5884 5883 5882 5880 5879 5877 5875 5873 5871 5869 5867 5865 5863 5861 5858 5856 5853 5851
5838 5842 5847 5853 5857 5860 5863 5865 5868 5871 5874 5876 5879 5881 5883 5883 5883 5883 5883 5883 5883 5883 5882 5882 5882 5881 5880 5879 5878 5876 5875 5873 5871 5869 5868 5866 5864 5861 5859 5857 5854 5852 5850 5847
5831 5835 5843 5847 5850 5854 5856 5859 5862 5865 5868 5871 5873 5875 5876 5878 5878 5878 5878 5878 5878 5878 5878 5878 5877 5877 5876 5875 5873 5872 5871 5869 5867 5865 5863 5861 5859 5857 5855 5853 5850 5848 5845 5843
5825 5830 5835 5839 5843 5846 5850 5853 5856 5859 5862 5864 5867 5868 5870 5871 5872 5872 5872 5872 5873 5873 5873 5872 5872 5871 5871 5870 5869 5867 5866 5864 5862 5860 5859 5857 5855 5853 5850 5848 5846 5843 5841 5838
5816 5821 5826 5831 5835 5839 5843 5846 5849 5852 5855 5858 5860 5862 5863 5865 5866 5866 5866 5866 5867 5867 5867 5866 5866 5865 5865 5864 5863 5862 5860 5859 5857 5855 5854 5852 5850 5848 5846 5843 5841 5838 5835 5833
5809 5814 5819 5824 5828 5833 5836 5839 5842 5845 5847 5850 5853 5855 5857 5858 5859 5860 5860 5860 5860 5860 5860 5860 5860 5859 5859 5858 5857 5856 5855 5853 5852 5850 5848 5846 5844 5842 5840 5838 5835 5833 5830 5828
5802 5807 5812 5817 5821 5825 5829 5832 5835 5838 5841 5843 5845 5847 5849 5851 5852 5853 5853 5853 5854 5854 5854 5854 5853 5853 5852 5852 5851 5850 5849 5848 5846 5844 5842 5841 5839 5837 5834 5832 5830 5827 5825 5822
5795 5800 5805 5809 5813 5817 5821 5825 5828 5831 5834 5836 5838 5840 5842 5843 5844 5845 5846 5846 5847 5847 5847 5847 5847 5846 5845 5845 5844 5843 5842 5841 5840 5838 5836 5834 5832 5830 5828 5826 5823 5821 5818 5816
5787 5792 5796 5800 5805 5809 5813 5816 5819 5822 5825 5828 5831 5833 5834 5836 5836 5837 5838 5839 5839 5839 5839 5839 5839 5839 5838 5838 5837 5837 5835 5834 5833 5832 5830 5828 5826 5824 5822 5819 5817 5815 5812 5809
5779 5784 5788 5792 5796 5800 5804 5808 5811 5814 5817 5820 5823 5825 5826 5828 5829 5830 5830 5831 5831 5832 5832 5832 5831 5831 5831 5830 5830 5829 5829 5827 5826 5825 5823 5821 5819 5817 5815 5813 5810 5808 5805 5803
5771 5775 5780 5784 5788 5792 5796 5799 5802 5806 5809 5812 5814 5816 5818 5819 5821 5822 5822 5823 5824 5824 5824 5824 5824 5823 5823 5823 5822 5822 5821 5820 5819 5817 5815 5814 5812 5810 5808 5805 5803 5801 5798 5796
5762 5767 5771 5776 5780 5783 5787 5790 5793 5797 5800 5803 5805 5807 5809 5811 5813 5814 5815 5815 5816 5816 5816 5816 5816 5815 5815 5815 5814 5814 5813 5812 5811 5810 5808 5806 5804 5802 5800 5798 5796 5793 5791 5788
5754 5759 5763 5767 5771 5774 5778 5782 5785 5788 5791 5794 5796 5799 5800 5802 5804 5805 5806 5807 5807 5808 5808 5808 5808 5807 5807 5807 5806 5806 5805 5804 5803 5802 5800 5798 5796 5794 5792 5790 5788 5786 5784 5781
5746 5750 5755 5759 5762 5765 5770 5773 5776 5779 5782 5785 5787 5789 5791 5793 5795 5796 5797 5798 5799 5799 5800 5799 5799 5799 5799 5799 5798 5797 5797 5796 5795 5793 5792 5790 5788 5787 5785 5783 5780 5778 5776 5773
5738 5742 5746 5750 5754 5757 5761 5764 5767 5770 5773 5776 5778 5780 5783 5784 5786 5787 5789 5790 5790 5791 5791 5791 5791 5791 5790 5790 5790 5789 5788 5787 5786 5785 5784 5783 5781 5779 5777 5775 5773 5771 5769 5766
5730 5733 5737 5741 5745 5748 5752 5755 5759 5761 5764 5767 5769 5772 5774 5776 5777 5779 5780 5781 5782 5782 5782 5782 5782 5782 5782 5782 5781 5781 5780 5779 5778 5777 5776 5775 5773 5772 5770 5768 5766 5763 5761 5759
5722 5725 5729 5732 5736 5739 5743 5747 5750 5753 5756 5758 5761 5763 5765 5767 5768 5770 5771 5772 5773 5774 5774 5774 5774 5774 5774 5774 5773 5773 5772 5771 5770 5769 5768 5767 5766 5764 5762 5760 5758 5756 5754 5752
5714 5717 5720 5724 5727 5731 5735 5738 5741 5744 5747 5749 5752 5754 5756 5758 5760 5761 5763 5764 5765 5765 5766 5766 5766 5766 5766 5765 5765 5765 5764 5764 5763 5762 5761 5760 5758 5756 5755 5753 5751 5749 5747 5745
5707 5710 5713 5716 5720 5723 5727 5730 5733 5736 5738 5741 5744 5746 5748 5750 5751 5753 5754 5755 5756 5757 5757 5758 5758 5758 5758 5758 5757 5757 5757 5756 5756 5754 5753 5752 5750 5749 5748 5746 5744 5742 5740 5738
5701 5703 5706 5709 5713 5716 5719 5722 5725 5728 5731 5733 5736 5738 5740 5742 5744 5745 5746 5747 5748 5749 5749 5750 5750 5750 5750 5750 5750 5750 5749 5749 5748 5747 5746 5745 5743 5742 5741 5739 5737 5735 5733 5730
5695 5698 5701 5704 5707 5710 5713 5716 5718 5721 5724 5727 5729 5731 5733 5735 5736 5737 5738 5739 5740 5741 5742 5743 5743 5743 5743 5744 5743 5743 5742 5741 5741 5740 5739 5738 5737 5735 5734 5732 5730 5728 5725 5722
5690 5692 5695 5698 5701 5704 5707 5710 5713 5716 5718 5720 5722 5724 5726 5728 5729 5730 5732 5733 5734 5734 5735 5736 5736 5736 5736 5736 5736 5736 5735 5735 5734 5733 5732 5731 5730 5728 5727 5724 5722 5720 5717 5714